Wind_Speed
6 7 7 9 10 9 12 11 12 13 13 14 16 18 19 20 21 20 20 20 22 22 21 21 21 22 22 21 22 23 23 23 24 25 26 26 26 25 24 24 24 25 25 25
5 7 8 9 11 11 11 12 13 14 14 15 16 18 19 18 20 21 21 21 21 23 23 23 22 23 22 22 22 23 24 24 25 26 26 26 26 25 25 25 25 25 25 25
7 9 10 10 10 11 12 12 14 15 16 16 16 18 19 18 21 22 21 20 20 21 21 22 21 22 22 23 23 24 24 25 26 26 27 27 26 25 26 25 26 26 26 25
8 9 10 11 11 12 13 13 15 16 16 17 17 19 19 19 21 21 21 21 20 20 21 23 23 22 23 23 23 24 24 25 26 27 27 27 26 25 25 25 26 27 26 25
8 11 11 12 13 13 12 14 16 16 18 18 18 19 19 19 22 22 20 21 20 21 21 22 23 22 22 23 24 24 24 25 27 27 26 25 24 24 25 24 25 26 25 25
10 12 12 13 14 14 13 14 15 16 16 17 15 18 21 20 20 20 20 19 20 20 21 22 23 23 23 23 24 23 24 24 24 24 23 23 23 23 23 23 23 23 23 24
10 11 11 13 13 14 13 12 13 14 15 16 14 16 19 19 20 20 19 20 21 21 20 21 22 22 22 23 23 23 23 23 22 22 22 22 22 22 23 22 21 23 23 24
10 11 12 14 13 14 14 12 13 14 16 15 15 16 17 18 19 20 19 20 20 21 21 21 21 21 22 22 22 21 21 21 22 21 20 20 21 22 22 22 22 23 24 25
11 12 12 12 13 13 12 12 14 16 16 17 16 16 18 17 18 18 19 20 21 21 21 21 20 21 21 20 20 20 20 20 21 20 21 21 21 22 23 22 22 23 24 24
14 14 12 12 12 13 13 14 14 15 16 17 17 17 18 17 18 19 19 19 19 20 21 20 18 17 17 18 19 19 19 19 20 20 20 21 22 23 22 22 22 22 23 23
14 15 13 14 14 13 13 15 16 15 17 18 19 19 18 18 18 20 20 20 21 20 19 19 19 18 18 18 19 19 19 19 19 19 20 21 21 22 22 22 21 21 22 22
14 15 15 15 15 15 13 14 15 16 16 17 19 20 19 19 19 20 20 20 21 21 19 18 18 19 19 19 19 19 19 19 19 19 19 19 20 21 20 20 20 21 21 21
15 15 14 13 14 14 13 13 14 15 17 18 18 20 19 19 20 20 19 19 20 19 17 17 18 19 18 19 19 19 18 17 17 17 17 18 18 19 18 18 19 19 19 20
18 16 14 14 15 14 13 14 14 15 17 18 19 20 19 19 18 17 18 19 20 20 19 17 18 18 19 19 18 17 17 17 16 16 16 17 17 17 16 17 17 17 18 19
19 17 15 14 16 17 14 14 15 17 17 18 19 20 19 18 18 18 18 18 19 20 19 19 18 18 18 17 16 16 16 16 16 16 16 16 16 16 15 15 15 15 17 18
18 18 16 15 14 15 15 15 15 16 17 17 18 20 19 19 19 20 19 19 19 18 18 18 17 17 17 16 16 15 15 15 15 15 15 15 15 15 15 14 14 15 16 16
18 18 17 14 13 14 15 14 16 16 16 17 18 19 18 19 17 18 18 17 17 17 16 16 17 16 16 16 15 15 15 15 15 14 14 13 13 13 13 14 14 14 15 15
17 17 16 13 14 15 14 14 14 15 15 17 18 18 17 16 16 16 16 16 16 16 16 16 16 16 16 15 14 14 14 14 14 13 13 12 12 12 13 13 13 14 15 15
16 16 15 14 15 15 15 16 15 15 15 16 17 17 16 15 16 16 14 14 14 14 15 14 14 15 15 14 14 13 13 13 13 12 11 11 11 11 12 12 13 14 14 15
15 14 15 15 16 15 13 15 16 15 15 16 16 15 15 14 15 15 14 14 13 13 12 12 12 12 13 12 12 11 11 11 10 10 10 9 10 10 11 11 12 12 13 14
15 15 15 16 16 15 14 14 14 15 16 15 15 14 14 14 14 13 14 14 13 12 12 11 11 11 11 10 11 10 9 9 8 8 9 9 9 9 9 10 11 12 13 14
15 15 15 16 16 14 14 14 14 15 15 13 13 13 13 13 13 12 13 13 12 12 11 10 11 11 10 10 10 9 8 7 8 8 8 8 7 8 8 9 11 12 13 14
16 17 17 17 16 15 13 14 14 14 14 12 12 12 12 12 12 11 11 12 11 11 10 10 10 10 9 8 8 7 7 6 6 7 6 6 6 7 7 9 10 12 13 13
17 18 17 16 15 15 14 14 15 14 14 12 11 11 11 11 10 9 10 9 9 9 8 8 8 7 7 6 6 6 6 5 5 5 6 6 6 7 8 9 11 12 12 13
16 17 17 17 16 14 13 14 14 13 12 11 10 10 10 10 9 9 8 7 7 6 6 6 6 6 5 5 5 5 5 5 4 5 6 6 6 7 9 10 11 12 13 13
17 17 18 17 16 13 13 13 12 11 10 10 10 9 9 9 9 8 7 6 6 5 5 5 5 4 3 4 4 4 4 4 4 5 5 6 7 8 9 10 12 12 12 13
Wind_Direction
253 251 252 253 250 245 247 242 239 246 252 258 261 262 259 260 262 264 268 270 271 272 271 269 275 277 279 281 283 286 289 292 293 293 293 294 295 294 291 291 290 292 293 293
273 270 258 252 246 243 249 248 244 244 248 253 262 262 263 262 266 264 263 268 267 269 273 276 276 278 280 283 284 286 289 291 293 294 294 295 295 293 292 290 289 291 292 293
265 261 255 253 249 248 251 253 255 252 254 263 266 263 266 265 265 266 265 265 269 270 273 276 277 279 281 282 283 285 288 291 292 293 295 295 293 292 292 291 290 292 292 292
266 262 252 252 256 250 249 250 255 260 262 265 267 266 267 272 272 269 273 270 270 271 274 276 278 279 280 281 281 283 287 290 291 293 295 294 293 293 294 294 293 293 292 291
263 264 255 250 254 250 247 247 250 257 260 263 265 268 271 271 275 275 277 277 274 273 274 276 278 280 280 279 280 282 286 289 292 293 292 293 298 300 299 296 297 294 293 294
261 258 257 256 254 254 250 251 258 263 267 266 269 269 268 267 271 277 279 278 280 278 278 278 279 279 280 281 281 281 285 287 291 293 295 297 299 301 302 299 299 297 297 298
274 274 267 262 258 257 256 254 262 267 272 273 274 268 272 271 274 278 281 280 280 278 279 279 279 278 279 280 281 281 284 285 289 294 296 297 298 300 302 302 301 304 303 304
274 277 274 265 257 254 259 260 265 276 281 283 276 271 277 279 284 284 280 276 275 278 280 279 276 277 281 283 283 283 286 289 290 292 293 296 299 301 302 303 304 305 306 307
257 259 262 266 265 255 253 260 264 271 275 282 275 281 280 280 287 283 279 279 280 282 280 278 277 278 281 282 284 286 289 290 289 292 294 296 298 301 302 303 305 306 308 310
252 256 255 258 262 257 256 261 266 265 271 277 281 281 278 278 279 283 282 281 284 284 280 278 280 281 282 284 286 289 290 293 293 293 293 296 298 300 301 302 305 308 310 312
259 259 251 249 256 255 253 264 265 264 264 272 277 278 279 284 281 280 283 285 286 284 279 279 281 282 283 284 286 287 288 289 291 291 294 296 298 300 299 301 304 308 311 313
257 262 258 256 258 255 255 260 266 267 267 271 275 279 279 280 281 279 280 282 283 284 283 282 283 283 284 286 288 287 286 288 288 290 294 296 299 301 300 301 305 309 313 314
252 258 263 265 268 264 263 262 265 269 276 279 281 287 289 287 284 284 285 284 288 288 288 285 287 286 286 288 289 288 287 289 290 292 295 298 301 306 307 305 307 312 315 316
252 255 258 267 269 263 263 265 271 274 277 283 285 286 289 290 286 290 290 292 293 293 292 288 288 287 286 288 288 287 286 287 290 292 295 300 304 308 310 311 311 315 317 318
252 254 256 260 267 270 272 269 270 273 275 276 280 281 288 290 290 288 292 292 291 293 293 291 291 288 288 289 289 288 287 287 288 290 294 296 303 308 310 313 315 319 321 321
257 257 259 259 266 273 272 272 271 269 272 276 278 281 284 289 290 289 290 291 292 294 293 292 289 291 291 288 289 288 287 287 286 289 293 298 303 307 309 313 316 321 324 325
258 258 260 260 264 269 265 266 268 268 273 279 278 282 285 290 291 290 291 290 290 289 289 292 292 291 291 289 290 289 287 287 286 289 294 299 302 306 310 314 321 324 325 326
256 255 256 260 260 269 271 270 269 269 270 276 279 282 287 293 292 291 292 293 292 288 287 290 290 291 290 289 289 289 288 288 289 291 291 294 300 307 314 317 320 322 324 324
254 252 254 255 260 266 271 275 275 271 274 279 281 284 285 289 292 293 296 295 292 290 288 290 291 292 291 288 289 289 288 289 292 291 294 298 302 308 315 319 322 324 327 329
246 249 252 253 260 265 268 274 277 272 274 277 282 286 287 290 291 293 295 294 293 292 296 298 300 298 293 289 289 288 287 288 291 294 299 303 306 311 317 321 325 329 332 334
238 241 249 252 258 267 272 274 273 271 278 279 282 286 286 291 293 296 295 295 295 297 301 301 304 303 298 293 291 290 293 295 295 299 300 302 306 311 317 323 327 333 338 341
241 242 251 253 255 258 266 271 270 272 277 275 282 289 292 296 297 296 297 297 296 297 297 299 300 299 295 293 294 291 292 296 295 300 304 303 307 312 319 326 331 337 341 342
244 242 245 247 253 260 264 267 271 272 278 281 282 285 289 294 296 295 297 297 298 298 297 300 299 298 295 296 299 295 294 298 302 304 306 306 309 312 319 327 332 336 338 341
243 244 248 254 256 255 256 265 269 274 274 275 280 283 288 293 296 297 300 305 303 303 300 302 304 303 300 297 295 294 295 299 305 310 309 309 310 317 324 328 331 336 339 341
245 246 248 253 256 259 255 260 269 273 272 272 277 282 286 288 292 295 298 305 310 311 312 311 309 303 297 295 292 290 293 299 307 313 321 322 325 327 329 330 333 336 338 340
244 248 250 250 248 255 257 263 265 267 265 266 273 279 283 285 289 293 295 300 305 308 311 313 313 313 311 317 315 308 306 306 311 315 329 334 333 331 329 330 333 336 336 338
Height
5830 5832 5832 5834 5835 5836 5836 5838 5839 5841 5842 5843 5842 5842 5843 5842 5841 5842 5843 5843 5843 5842 5842 5843 5844 5843 5843 5843 5842 5842 5841 5840 5838 5837 5835 5834 5832 5830 5828 5827 5825 5823 5821 5820
5830 5831 5832 5832 5832 5833 5834 5836 5837 5838 5839 5839 5840 5840 5839 5839 5838 5839 5840 5840 5839 5838 5838 5838 5839 5840 5840 5839 5838 5837 5836 5836 5834 5832 5830 5829 5827 5825 5823 5822 5820 5818 5816 5815
5829 5831 5830 5831 5832 5833 5834 5835 5835 5836 5836 5836 5836 5836 5836 5836 5835 5835 5835 5836 5834 5834 5834 5835 5835 5835 5835 5834 5834 5833 5832 5831 5829 5827 5826 5823 5822 5820 5818 5817 5815 5813 5811 5809
5828 5828 5828 5829 5830 5831 5832 5832 5832 5833 5833 5834 5834 5833 5833 5833 5831 5830 5831 5831 5831 5832 5831 5830 5830 5830 5830 5830 5829 5828 5827 5826 5824 5823 5821 5818 5816 5815 5813 5811 5809 5807 5806 5804
5826 5827 5827 5827 5828 5828 5829 5829 5829 5830 5829 5830 5830 5829 5830 5829 5828 5826 5826 5826 5826 5827 5827 5826 5825 5825 5825 5825 5824 5823 5822 5821 5819 5817 5816 5813 5811 5809 5807 5805 5803 5801 5799 5798
5823 5824 5824 5825 5825 5825 5826 5826 5826 5826 5826 5826 5827 5827 5825 5824 5823 5823 5823 5823 5822 5821 5822 5821 5820 5820 5820 5819 5818 5818 5817 5816 5814 5812 5810 5808 5807 5805 5803 5801 5799 5796 5794 5792
5821 5821 5822 5822 5823 5823 5823 5824 5824 5824 5823 5823 5824 5822 5821 5820 5821 5820 5819 5818 5817 5817 5817 5817 5815 5815 5815 5814 5813 5813 5812 5811 5809 5807 5806 5804 5802 5800 5798 5796 5794 5792 5789 5788
5820 5821 5820 5819 5820 5820 5820 5821 5822 5822 5821 5820 5820 5819 5817 5817 5816 5816 5815 5814 5813 5813 5812 5812 5811 5810 5810 5809 5807 5806 5806 5805 5804 5802 5801 5799 5798 5796 5794 5792 5790 5788 5785 5782
5817 5817 5817 5816 5817 5817 5818 5819 5819 5818 5817 5816 5816 5816 5814 5813 5812 5812 5812 5810 5809 5809 5807 5807 5805 5805 5805 5804 5803 5801 5801 5800 5798 5798 5796 5795 5794 5792 5790 5788 5786 5783 5780 5777
5813 5813 5814 5815 5815 5815 5815 5816 5815 5815 5813 5813 5813 5812 5809 5809 5808 5808 5807 5806 5805 5804 5803 5802 5801 5800 5800 5799 5798 5797 5796 5795 5794 5793 5792 5791 5789 5787 5785 5783 5781 5779 5776 5773
5809 5810 5811 5811 5811 5810 5812 5812 5811 5812 5811 5810 5809 5808 5805 5806 5804 5803 5802 5801 5800 5799 5797 5796 5796 5796 5795 5794 5793 5792 5791 5791 5790 5788 5787 5786 5785 5783 5781 5779 5777 5774 5772 5769
5805 5806 5806 5807 5807 5807 5807 5808 5808 5808 5807 5805 5804 5805 5802 5801 5800 5798 5797 5796 5796 5793 5791 5791 5791 5790 5790 5789 5788 5787 5786 5786 5785 5784 5783 5782 5780 5779 5777 5775 5773 5770 5768 5765
5802 5802 5802 5803 5806 5804 5804 5804 5804 5804 5802 5801 5800 5801 5798 5797 5796 5794 5792 5791 5791 5789 5786 5787 5786 5785 5784 5783 5783 5782 5781 5781 5780 5779 5779 5777 5776 5774 5773 5770 5769 5766 5764 5761
5797 5798 5799 5800 5800 5799 5799 5801 5801 5801 5799 5798 5797 5796 5794 5792 5790 5789 5788 5787 5786 5785 5784 5783 5782 5781 5780 5779 5778 5777 5777 5776 5776 5776 5775 5774 5772 5771 5769 5767 5765 5763 5760 5758
5792 5794 5795 5795 5796 5795 5796 5797 5797 5797 5796 5795 5793 5791 5789 5788 5786 5785 5784 5783 5782 5781 5780 5779 5778 5777 5776 5775 5774 5773 5773 5772 5772 5772 5771 5770 5769 5768 5766 5764 5762 5760 5757 5755
5787 5789 5790 5792 5793 5792 5793 5793 5793 5792 5792 5790 5789 5787 5786 5784 5783 5782 5781 5780 5778 5777 5776 5775 5774 5773 5772 5771 5770 5769 5769 5768 5768 5768 5768 5767 5766 5765 5763 5761 5759 5757 5755 5752
5784 5786 5786 5787 5788 5788 5788 5789 5788 5788 5787 5786 5784 5784 5783 5780 5779 5778 5777 5775 5774 5773 5773 5771 5770 5769 5768 5767 5767 5766 5765 5765 5765 5764 5764 5763 5763 5762 5760 5758 5756 5754 5752 5750
5780 5781 5782 5783 5784 5784 5786 5784 5783 5783 5782 5782 5781 5780 5778 5777 5776 5774 5773 5772 5771 5770 5769 5768 5767 5765 5764 5763 5763 5763 5762 5762 5761 5761 5761 5760 5760 5759 5757 5756 5754 5752 5750 5747
5776 5777 5778 5779 5779 5779 5781 5780 5780 5779 5779 5778 5777 5776 5775 5775 5773 5771 5770 5769 5768 5766 5765 5764 5762 5761 5760 5760 5760 5759 5759 5759 5759 5759 5758 5758 5757 5756 5755 5753 5751 5749 5747 5744
5772 5773 5775 5775 5775 5775 5778 5777 5776 5776 5775 5775 5774 5773 5772 5772 5770 5769 5767 5765 5764 5763 5761 5760 5759 5757 5757 5757 5756 5757 5757 5756 5756 5756 5756 5755 5754 5754 5752 5751 5749 5747 5745 5742
5768 5769 5770 5771 5771 5772 5772 5773 5773 5774 5773 5772 5771 5770 5769 5768 5767 5766 5764 5763 5761 5760 5759 5757 5756 5755 5754 5754 5754 5754 5754 5754 5754 5753 5753 5753 5752 5751 5750 5748 5747 5745 5743 5741
5764 5765 5767 5767 5767 5770 5769 5769 5770 5770 5769 5768 5768 5767 5766 5766 5764 5763 5762 5760 5759 5757 5756 5755 5754 5753 5752 5752 5751 5751 5752 5752 5751 5751 5751 5750 5750 5749 5748 5747 5745 5744 5742 5739
5758 5761 5761 5763 5765 5764 5764 5765 5765 5766 5765 5765 5765 5765 5764 5763 5762 5761 5760 5758 5757 5755 5754 5753 5752 5751 5750 5750 5750 5750 5750 5750 5750 5749 5749 5748 5748 5747 5746 5745 5744 5742 5740 5738
5755 5755 5756 5758 5759 5760 5761 5761 5762 5763 5762 5762 5762 5762 5762 5761 5760 5759 5757 5756 5754 5753 5752 5751 5751 5749 5749 5748 5748 5749 5748 5748 5748 5748 5747 5747 5746 5746 5745 5744 5742 5741 5739 5737
5750 5751 5753 5754 5756 5756 5758 5758 5759 5759 5759 5759 5759 5759 5759 5758 5758 5757 5755 5754 5753 5752 5751 5750 5749 5749 5748 5748 5747 5747 5747 5747 5747 5747 5746 5746 5745 5745 5744 5743 5741 5739 5737 5735
5745 5747 5749 5750 5752 5753 5755 5756 5756 5756 5756 5757 5757 5757 5757 5756 5755 5755 5754 5753 5752 5751 5750 5749 5749 5748 5748 5747 5747 5747 5746 5746 5746 5746 5746 5745 5745 5744 5743 5742 5740 5738 5736 5734